Regional Weather Roundup
Issued by NWS

Home | Current Version | Previous Version | Graphics & Text | Print | Product List | Glossary On
Versions: 1 2 3 4 5 6 7 8 9 10 11 12 13 14 15 16 17 18 19 20 21 22 23 24 25 26 27 28 29 30 31 32 33 34 35 36 37 38 39 40 41 42 43 44 45 46 47 48 49 50
000
ASUS45 KBOI 211410
RWRID
WEATHER ROUNDUP FOR IDAHO
NATIONAL WEATHER SERVICE BOISE ID
800 AM MDT TUE APR 21 2015

NOTE: "FAIR" INDICATES FEW OR NO CLOUDS BELOW 12000 FEET
WITH NO SIGNIFICANT WEATHER AND/OR OBSTRUCTIONS TO VISIBILITY

IDZ012-014-211500-
SOUTHWEST IDAHO


CITY           SKY/WX    TMP DP  RH WIND       PRES   REMARKS
BOISE          SUNNY     47  33  58 SE6       29.85R
CALDWELL       SUNNY     41  28  60 CALM      29.87R
MOUNTAIN HOME  SUNNY     39  29  66 E2        29.86R
$$

IDZ016-017-211500-
SOUTHCENTRAL IDAHO


CITY           SKY/WX    TMP DP  RH WIND       PRES   REMARKS
BURLEY         SUNNY     44  28  53 CALM      29.88R
JEROME         SUNNY     48  29  47 CALM      29.88R
TWIN FALLS     SUNNY     51  26  37 S8        29.88R
$$

IDZ019>023-211500-
SOUTHEAST IDAHO


CITY           SKY/WX    TMP DP  RH WIND       PRES   REMARKS
IDAHO FALLS    MOSUNNY   40  30  67 CALM      29.91R
POCATELLO      SUNNY     40  31  70 N3        29.91R
REXBURG        PTSUNNY   40  29  64 CALM      29.91S
$$

IDZ006-010-011-018-031-032-211500-
CENTRAL IDAHO MOUNTAINS


CITY           SKY/WX    TMP DP  RH WIND       PRES   REMARKS
MCCALL         SUNNY     34  30  85 CALM      29.90R
HAILEY         SUNNY     37  28  70 W9        29.93R WCI  31
STANLEY          N/A     29  23  78 CALM      29.99R
SALMON         SUNNY     36  27  69 CALM      29.94R
CHALLIS        SUNNY     40  23  50 CALM      29.94R
$$

IDZ002-004-006-007-026-211500-
NORTHERN IDAHO


CITY           SKY/WX    TMP DP  RH WIND       PRES   REMARKS
LEWISTON       SUNNY     48  39  71 CALM      29.87R
LOWELL           N/A     39  37  92 CALM      29.95R
COEUR D`ALENE  SUNNY     41  36  81 E3        29.88S
MULLAN PASS    SUNNY     45  29  53 NW3       29.92S
$$



USA.gov is the U.S. government's official web portal to all federal, state and local government web resources and services.